Terminal Aerodrome Forecast
Issued by NWS Spokane, WA

Home | Current Version | Previous Version | Text Only | Print | Product List | Glossary On
Versions: 1 2 3 4 5 6 7 8 9 10 11 12 13 14 15 16 17 18 19 20 21 22 23 24
000
FTUS46 KOTX 041120
TAFLWS
TAF
KLWS 041120Z 0412/0512 08004KT P6SM FEW100
     FM041500 05003KT P6SM SCT200
     FM042000 31007KT P6SM SCT080 BKN150
     FM050200 29010KT P6SM VCSH SCT060 BKN100
     FM050500 23010KT P6SM -RA BKN025 OVC050=

USA.gov is the U.S. government's official web portal to all federal, state and local government web resources and services.